RBSP A                  
1 38752U 12046A   19264.27635482  .00002755  00000-0  38405-3 0  9999
2 38752   9.7233 157.8945 6940315 182.9821 168.2749  2.73711602 69145
RBSP B                  
1 38753U 12046B   19265.17725856  .00003139  00000-0  42292-3 0  9991
2 38753   9.7659 171.9797 6950323 155.8842 265.3864  2.72483946 68627